Location: Strawberry
(45.6646°N, 111.9596°W)
Time: 20:37:13
(UTC+00:00)

Courier 1B - Pass Details

Date: 12 October 2022
Orbit: 962 x 1209 km, 28.3° (Epoch: 29 November)

Event Time Altitude Azimuth Distance (km) Brightness Sun altitude
Rises 21:29:53 0° 250° (WSW) 4,097 11.6 28.7°
Reaches altitude 10° 21:34:04 10° 230° (SW) 3,109 11.8 28.2°
Maximum altitude 21:38:23 16° 196° (SSW) 2,644 11.2 27.7°
Drops below altitude 10° 21:42:37 10° 161° (SSE) 3,028 10.6 27.2°
Sets 21:46:36 0° 141° (SE) 3,938 10.8 26.7°
